Powrót do katalogu

KUIPER-00038

AktywnyŁącznośćLEO
NORAD 63750·PAYLOAD·🇺🇸 United States

Wystrzelony Apr 28, 2025 z Cape Canaveral Space Force Station

Loading…

Następne Przeloty (najbliższe 24 godziny)

TLE

ŚwieżeSource: CelesTrak SupGP

Epoka: Sep 14, 2026, 20:42 UTC

1 63750C 25088AC  26257.86271991  .00002882  00000+0  37734-3 0  2572
2 63750  51.9022 341.5999 0000593  98.0428 189.5408 14.79921909    17

Śledź KUIPER-00038 w czasie rzeczywistym z AllMySat

Download on the App Store